This is the latest recevied weather packets stored in our database for station/object WX5KDM. If no packets are shown the sender has not sent any weather packets the latest 10 day(s).
| Time | Temp. | Humidity | Pressure | Rain* | Wind** | Luminosity | Snow |
|---|---|---|---|---|---|---|---|
| 1788027794 | - | - | - | 0 mm | - | - | - |
| 1788027489 | - | - | - | 0 mm | - | - | - |
| 1788027183 | - | - | - | 0 mm | - | - | - |
| 1788026883 | - | - | - | 0 mm | - | - | - |
| 1788026579 | - | - | - | 0 mm | - | - | - |
| 1788026273 | 32.78° C | 49% | 1019.2 hPa | 0 mm | - | - | - |
| 1788025968 | 32.78° C | 49% | 1019.2 hPa | 0 mm | - | - | - |
| 1788025667 | 32.78° C | 49% | 1019.3 hPa | 0 mm | - | - | - |
| 1788025367 | 32.78° C | 50% | 1019.5 hPa | 0 mm | - | - | - |
| 1788025063 | 32.78° C | 48% | 1019.4 hPa | 0 mm | - | - | - |
| 1788024757 | 32.78° C | 52% | 1019.4 hPa | 0 mm | - | - | - |
| 1788024453 | 32.78° C | 53% | 1019.4 hPa | 0 mm | - | - | - |
| 1788024152 | 32.22° C | 50% | 1019.6 hPa | 0 mm | - | - | - |
| 1788023848 | 32.22° C | 51% | 1019.7 hPa | 0 mm | - | - | - |
| 1788023543 | 32.78° C | 52% | 1019.6 hPa | 0 mm | - | - | - |
| 1788023238 | 32.78° C | 47% | 1019.7 hPa | 0 mm | - | - | - |
| 1788022933 | 32.78° C | 46% | 1019.9 hPa | 0 mm | - | - | - |
| 1788022630 | 32.78° C | 50% | 1019.9 hPa | 0 mm | - | - | - |
| 1788022324 | 32.78° C | 52% | 1019.8 hPa | 0 mm | - | - | - |
| 1788022024 | 32.78° C | 54% | 1019.9 hPa | 0 mm | - | - | - |
| 1788021718 | 32.78° C | 56% | 1020 hPa | 0 mm | - | - | - |
| 1788021416 | 32.22° C | 54% | 1020.2 hPa | 0 mm | - | - | - |
| 1788021112 | 32.22° C | 57% | 1020.2 hPa | 0 mm | - | - | - |
| 1788020807 | 31.11° C | 59% | 1020.4 hPa | 0 mm | - | - | - |
| 1788020502 | 31.67° C | 58% | 1020.3 hPa | 0 mm | - | - | - |
* Rain latest hour (hover to see other rain measurements)
** Current wind speed in m/s (hover to see current wind gust speed)